Вернуться в каталог

ONEWEB-0322

АктивенСвязьPO
NORAD 49192·PAYLOAD·🇬🇧 United Kingdom

Запущен Sep 14, 2021 с Baikonur Cosmodrome

Loading…

Ближайшие Пролёты (ближайшие 24 часа)

TLE

СвежийSource: CelesTrak SupGP

Эпоха: Sep 14, 2026, 09:11 UTC

1 49192C 21083G   26257.38278196  .00000106  00000+0  29162-3 0  2571
2 49192  87.8911 302.4887 0002066  85.3115  25.4639 13.13466304    11

Отслеживайте ONEWEB-0322 в реальном времени с AllMySat

Download on the App Store